Time,TemperatureF,DewpointF,PressureIn,WindDirection,WindDirectionDegrees,WindSpeedMPH,WindSpeedGustMPH,Humidity,HourlyPrecipIn,Conditions,Clouds,dailyrainin,SoftwareType,DateUTC
2013-03-03 00:08:00,42.8,38.9,30.18,NW,323,0.0,0.0,86,0.00,,SKC,0.00,VWS V13.01,2013-03-03 08:08:00,
2013-03-03 00:18:00,42.6,38.7,30.18,NW,323,0.0,0.0,86,0.00,,SKC,0.00,VWS V13.01,2013-03-03 08:18:00,
2013-03-03 00:28:00,42.5,38.3,30.19,NW,323,0.0,0.0,85,0.00,,SKC,0.00,VWS V13.01,2013-03-03 08:28:00,
2013-03-03 00:38:00,42.3,38.1,30.19,NW,323,0.0,0.0,85,0.00,,SKC,0.00,VWS V13.01,2013-03-03 08:38:00,
2013-03-03 00:48:00,42.1,37.9,30.20,NW,323,0.0,0.0,85,0.00,,SKC,0.00,VWS V13.01,2013-03-03 08:48:00,
2013-03-03 00:58:00,41.8,37.6,30.20,NW,323,0.0,0.0,85,0.00,,SKC,0.00,VWS V13.01,2013-03-03 08:58:00,
2013-03-03 01:08:00,41.6,37.4,30.20,NW,323,0.0,0.0,85,0.00,,SKC,0.00,VWS V13.01,2013-03-03 09:08:00,
2013-03-03 01:18:00,41.5,37.3,30.21,NW,323,0.0,0.0,85,0.00,,SKC,0.00,VWS V13.01,2013-03-03 09:18:00,
2013-03-03 01:28:00,41.3,37.4,30.22,NW,323,0.0,0.0,86,0.00,,SKC,0.00,VWS V13.01,2013-03-03 09:28:00,
2013-03-03 01:38:00,41.3,37.4,30.22,NW,323,0.0,0.0,86,0.00,,SKC,0.00,VWS V13.01,2013-03-03 09:38:00,
2013-03-03 01:48:00,41.3,37.4,30.23,NW,323,0.0,0.0,86,0.00,,SKC,0.00,VWS V13.01,2013-03-03 09:48:00,
2013-03-03 01:58:00,41.3,37.4,30.23,NW,323,0.0,0.0,86,0.00,,SKC,0.00,VWS V13.01,2013-03-03 09:58:00,
2013-03-03 02:08:00,41.3,37.4,30.23,NW,323,0.0,0.0,86,0.00,,SKC,0.00,VWS V13.01,2013-03-03 10:08:00,
2013-03-03 02:18:00,41.3,37.4,30.23,NW,323,0.0,0.0,86,0.00,,SKC,0.00,VWS V13.01,2013-03-03 10:18:00,
2013-03-03 02:28:00,41.2,37.0,30.23,NE,34,0.0,0.0,85,0.00,,SKC,0.00,VWS V13.01,2013-03-03 10:28:00,
2013-03-03 02:38:00,41.2,36.7,30.23,NNE,31,0.0,0.0,84,0.00,,SKC,0.00,VWS V13.01,2013-03-03 10:38:00,
2013-03-03 02:48:00,41.2,36.4,30.23,NNE,25,0.0,0.0,83,0.00,,SKC,0.00,VWS V13.01,2013-03-03 10:48:00,
2013-03-03 02:58:00,41.3,36.5,30.23,NNE,32,0.0,0.0,83,0.00,,SKC,0.00,VWS V13.01,2013-03-03 10:58:00,
2013-03-03 03:08:00,41.2,35.8,30.23,NE,36,0.0,0.0,81,0.00,,SKC,0.00,VWS V13.01,2013-03-03 11:08:00,
2013-03-03 03:18:00,41.1,35.7,30.22,NE,45,0.0,0.0,81,0.00,,SKC,0.00,VWS V13.01,2013-03-03 11:18:00,
2013-03-03 03:28:00,40.9,35.2,30.22,NE,43,0.0,0.0,80,0.00,,SKC,0.00,VWS V13.01,2013-03-03 11:28:00,
2013-03-03 03:38:00,40.8,35.1,30.22,ENE,78,0.0,0.0,80,0.00,,SKC,0.00,VWS V13.01,2013-03-03 11:38:00,
2013-03-03 03:48:00,40.3,34.6,30.22,ENE,59,0.0,0.0,80,0.00,,SKC,0.00,VWS V13.01,2013-03-03 11:48:00,
2013-03-03 03:58:00,39.8,33.5,30.22,ENE,63,0.0,0.0,78,0.00,,SKC,0.00,VWS V13.01,2013-03-03 11:58:00,
2013-03-03 04:08:00,39.5,33.2,30.22,ENE,63,0.0,0.0,78,0.00,,SKC,0.00,VWS V13.01,2013-03-03 12:08:00,
2013-03-03 04:18:00,39.2,32.9,30.22,ENE,63,0.0,0.0,78,0.00,,SKC,0.00,VWS V13.01,2013-03-03 12:18:00,
2013-03-03 04:28:00,38.9,32.6,30.22,ENE,63,0.0,0.0,78,0.00,,SKC,0.00,VWS V13.01,2013-03-03 12:28:00,
2013-03-03 04:38:00,38.6,32.3,30.22,ENE,63,0.0,0.0,78,0.00,,SKC,0.00,VWS V13.01,2013-03-03 12:38:00,
2013-03-03 04:48:00,38.5,32.2,30.21,ENE,63,0.0,0.0,78,0.00,,SKC,0.00,VWS V13.01,2013-03-03 12:48:00,
2013-03-03 04:58:00,37.9,32.0,30.22,ENE,63,0.0,0.0,79,0.00,,SKC,0.00,VWS V13.01,2013-03-03 12:58:00,
2013-03-03 05:08:00,37.2,31.9,30.22,ENE,63,0.0,0.0,81,0.00,,SKC,0.00,VWS V13.01,2013-03-03 13:08:00,
2013-03-03 05:18:00,36.8,31.5,30.22,ENE,63,0.0,0.0,81,0.00,,SKC,0.00,VWS V13.01,2013-03-03 13:18:00,
2013-03-03 05:28:00,36.2,31.2,30.23,ENE,63,0.0,0.0,82,0.00,,SKC,0.00,VWS V13.01,2013-03-03 13:28:00,
2013-03-03 05:38:00,35.8,31.1,30.23,ENE,63,0.0,0.0,83,0.00,,SKC,0.00,VWS V13.01,2013-03-03 13:38:00,
2013-03-03 05:48:00,35.5,31.1,30.24,ENE,63,0.0,0.0,84,0.00,,SKC,0.00,VWS V13.01,2013-03-03 13:48:00,
2013-03-03 05:58:00,35.2,31.1,30.25,East,96,0.0,0.0,85,0.00,,SKC,0.00,VWS V13.01,2013-03-03 13:58:00,
2013-03-03 06:08:00,34.7,31.0,30.25,ESE,115,0.0,0.0,86,0.00,,SKC,0.00,VWS V13.01,2013-03-03 14:08:00,
2013-03-03 06:18:00,34.6,30.9,30.25,East,101,0.0,0.0,86,0.00,,SKC,0.00,VWS V13.01,2013-03-03 14:18:00,
2013-03-03 06:28:00,34.4,30.9,30.25,East,91,0.0,0.0,87,0.00,,SKC,0.00,VWS V13.01,2013-03-03 14:28:00,
2013-03-03 06:38:00,34.3,30.8,30.25,ENE,59,0.0,0.0,87,0.00,,SKC,0.00,VWS V13.01,2013-03-03 14:38:00,
2013-03-03 06:48:00,34.1,30.6,30.25,East,80,0.0,0.0,87,0.00,,SKC,0.00,VWS V13.01,2013-03-03 14:48:00,
2013-03-03 06:58:00,34.0,30.8,30.25,NE,49,0.0,0.0,88,0.00,,SKC,0.00,VWS V13.01,2013-03-03 14:58:00,
2013-03-03 07:08:00,33.8,30.6,30.25,East,81,0.0,0.0,88,0.00,,SKC,0.00,VWS V13.01,2013-03-03 15:08:00,
2013-03-03 07:18:00,33.7,30.5,30.25,ESE,113,0.0,0.0,88,0.00,,SKC,0.00,VWS V13.01,2013-03-03 15:18:00,
2013-03-03 07:28:00,33.8,30.9,30.25,East,97,0.0,0.0,89,0.00,,SKC,0.00,VWS V13.01,2013-03-03 15:28:00,
2013-03-03 07:38:00,33.8,30.9,30.25,ESE,102,0.0,0.0,89,0.00,,SKC,0.00,VWS V13.01,2013-03-03 15:38:00,
2013-03-03 07:48:00,33.8,30.9,30.26,ESE,110,0.0,0.0,89,0.00,,SKC,0.00,VWS V13.01,2013-03-03 15:48:00,
2013-03-03 07:58:00,34.3,31.4,30.26,ENE,58,0.0,0.0,89,0.00,,SKC,0.00,VWS V13.01,2013-03-03 15:58:00,
2013-03-03 08:08:00,34.7,31.5,30.26,East,93,0.0,0.0,88,0.00,,SKC,0.00,VWS V13.01,2013-03-03 16:08:00,
2013-03-03 08:18:00,34.7,31.5,30.26,East,94,0.0,0.0,88,0.00,,SKC,0.00,VWS V13.01,2013-03-03 16:18:00,
2013-03-03 08:28:00,34.9,31.7,30.26,ENE,70,0.0,0.0,88,0.00,,SKC,0.00,VWS V13.01,2013-03-03 16:28:00,
2013-03-03 08:38:00,35.2,32.3,30.26,East,101,0.0,0.0,89,0.00,,SKC,0.00,VWS V13.01,2013-03-03 16:38:00,
2013-03-03 08:48:00,35.8,32.6,30.26,ESE,107,0.0,0.0,88,0.00,,SKC,0.00,VWS V13.01,2013-03-03 16:48:00,
2013-03-03 08:58:00,36.5,33.3,30.26,East,91,0.0,0.0,88,0.00,,SKC,0.00,VWS V13.01,2013-03-03 16:58:00,
2013-03-03 09:08:00,37.6,34.4,30.26,ESE,115,0.0,0.0,88,0.00,,SKC,0.00,VWS V13.01,2013-03-03 17:08:00,
2013-03-03 09:18:00,38.8,34.7,30.26,East,96,0.0,0.0,85,0.00,,SKC,0.00,VWS V13.01,2013-03-03 17:18:00,
2013-03-03 09:28:00,39.5,34.8,30.27,East,99,0.0,0.0,83,0.00,,SKC,0.00,VWS V13.01,2013-03-03 17:28:00,
2013-03-03 09:38:00,40.3,35.2,30.27,ESE,107,0.0,0.0,82,0.00,,SKC,0.00,VWS V13.01,2013-03-03 17:38:00,
2013-03-03 09:48:00,41.1,35.7,30.26,ESE,107,0.0,0.0,81,0.00,,SKC,0.00,VWS V13.01,2013-03-03 17:48:00,
2013-03-03 09:58:00,41.9,35.2,30.26,ESE,115,0.0,0.0,77,0.00,,SKC,0.00,VWS V13.01,2013-03-03 17:58:00,
2013-03-03 10:08:00,42.3,32.9,30.26,NNE,21,0.0,0.0,69,0.00,,SKC,0.00,VWS V13.01,2013-03-03 18:08:00,
2013-03-03 10:18:00,43.1,31.8,30.26,East,86,0.0,0.0,64,0.00,,SKC,0.00,VWS V13.01,2013-03-03 18:18:00,
2013-03-03 10:28:00,43.9,30.5,30.25,NNE,18,0.0,0.0,59,0.00,,SKC,0.00,VWS V13.01,2013-03-03 18:28:00,
2013-03-03 10:38:00,44.9,30.2,30.25,ENE,70,0.0,0.0,56,0.00,,SKC,0.00,VWS V13.01,2013-03-03 18:38:00,
2013-03-03 10:48:00,45.5,30.7,30.25,NNE,27,0.0,0.0,56,0.00,,SKC,0.00,VWS V13.01,2013-03-03 18:48:00,
2013-03-03 10:58:00,45.7,30.5,30.25,NNE,33,0.0,0.0,55,0.00,,SKC,0.00,VWS V13.01,2013-03-03 18:58:00,
2013-03-03 11:08:00,45.7,30.0,30.25,ENE,73,0.0,0.0,54,0.00,,SKC,0.00,VWS V13.01,2013-03-03 19:08:00,
2013-03-03 11:18:00,45.5,29.8,30.25,East,80,0.0,0.0,54,0.00,,SKC,0.00,VWS V13.01,2013-03-03 19:18:00,
2013-03-03 11:28:00,45.7,29.6,30.25,North,0,0.0,0.0,53,0.00,,SKC,0.00,VWS V13.01,2013-03-03 19:28:00,
2013-03-03 11:38:00,46.2,30.0,30.25,North,0,0.0,0.0,53,0.00,,SKC,0.00,VWS V13.01,2013-03-03 19:38:00,
2013-03-03 11:48:00,45.7,30.0,30.25,North,350,0.0,0.0,54,0.00,,SKC,0.00,VWS V13.01,2013-03-03 19:48:00,
2013-03-03 11:58:00,45.8,30.6,30.24,North,0,0.0,0.0,55,0.00,,SKC,0.00,VWS V13.01,2013-03-03 19:58:00,
2013-03-03 12:08:00,46.2,30.5,30.24,NE,51,0.0,0.0,54,0.00,,SKC,0.00,VWS V13.01,2013-03-03 20:08:00,
2013-03-03 12:18:00,46.7,29.1,30.23,NE,55,0.0,0.0,50,0.00,,SKC,0.00,VWS V13.01,2013-03-03 20:18:00,
2013-03-03 12:28:00,47.0,29.3,30.23,ESE,117,0.0,0.0,50,0.00,,SKC,0.00,VWS V13.01,2013-03-03 20:28:00,
2013-03-03 12:38:00,47.4,30.7,30.23,NNE,25,0.0,0.0,52,0.00,,SKC,0.00,VWS V13.01,2013-03-03 20:38:00,
2013-03-03 12:48:00,47.0,31.7,30.23,NNW,346,0.0,0.0,55,0.00,,SKC,0.00,VWS V13.01,2013-03-03 20:48:00,
2013-03-03 12:58:00,46.8,32.0,30.22,North,0,0.0,0.0,56,0.00,,SKC,0.00,VWS V13.01,2013-03-03 20:58:00,
2013-03-03 13:08:00,47.3,31.5,30.22,NNE,28,0.0,0.0,54,0.00,,SKC,0.00,VWS V13.01,2013-03-03 21:08:00,
2013-03-03 13:18:00,47.1,29.9,30.22,NE,42,0.0,0.0,51,0.00,,SKC,0.00,VWS V13.01,2013-03-03 21:18:00,
2013-03-03 13:28:00,47.4,30.7,30.22,North,0,0.0,0.0,52,0.00,,SKC,0.00,VWS V13.01,2013-03-03 21:28:00,
2013-03-03 13:38:00,47.7,30.0,30.22,NNE,24,0.0,0.0,50,0.00,,SKC,0.00,VWS V13.01,2013-03-03 21:38:00,
2013-03-03 13:48:00,47.6,30.4,30.21,North,0,0.0,0.0,51,0.00,,SKC,0.00,VWS V13.01,2013-03-03 21:48:00,
2013-03-03 13:58:00,47.3,30.1,30.21,NNE,20,0.0,0.0,51,0.00,,SKC,0.00,VWS V13.01,2013-03-03 21:58:00,
2013-03-03 14:08:00,47.6,30.4,30.21,NE,34,0.0,0.0,51,0.00,,SKC,0.00,VWS V13.01,2013-03-03 22:08:00,
2013-03-03 14:18:00,47.9,29.2,30.20,North,349,0.0,0.0,48,0.00,,SKC,0.00,VWS V13.01,2013-03-03 22:18:00,
2013-03-03 14:28:00,48.0,29.8,30.20,NNE,13,0.0,0.0,49,0.00,,SKC,0.00,VWS V13.01,2013-03-03 22:28:00,
2013-03-03 14:38:00,48.2,28.9,30.20,North,354,0.0,0.0,47,0.00,,SKC,0.00,VWS V13.01,2013-03-03 22:38:00,
2013-03-03 14:48:00,48.3,29.0,30.20,NNE,15,0.0,0.0,47,0.00,,SKC,0.00,VWS V13.01,2013-03-03 22:48:00,
2013-03-03 14:58:00,48.0,29.8,30.20,North,0,0.0,0.0,49,0.00,,SKC,0.00,VWS V13.01,2013-03-03 22:58:00,
2013-03-03 15:08:00,48.2,28.9,30.20,NNE,18,0.0,0.0,47,0.00,,SKC,0.00,VWS V13.01,2013-03-03 23:08:00,
2013-03-03 15:18:00,48.5,29.7,30.20,North,358,0.0,0.0,48,0.00,,SKC,0.00,VWS V13.01,2013-03-03 23:18:00,
2013-03-03 15:28:00,48.5,29.7,30.20,North,358,0.0,0.0,48,0.00,,SKC,0.00,VWS V13.01,2013-03-03 23:28:00,
2013-03-03 15:38:00,48.6,29.8,30.20,NNE,25,0.0,0.0,48,0.00,,SKC,0.00,VWS V13.01,2013-03-03 23:38:00,
2013-03-03 15:48:00,48.6,29.8,30.20,NNE,20,0.0,0.0,48,0.00,,SKC,0.00,VWS V13.01,2013-03-03 23:48:00,
2013-03-03 15:58:00,48.6,29.3,30.20,NNE,13,0.0,0.0,47,0.00,,SKC,0.00,VWS V13.01,2013-03-03 23:58:00,
2013-03-03 16:08:00,48.6,28.2,30.20,North,6,0.0,0.0,45,0.00,,SKC,0.00,VWS V13.01,2013-03-04 00:08:00,
2013-03-03 16:18:00,49.1,28.7,30.19,NNW,340,0.0,0.0,45,0.00,,SKC,0.00,VWS V13.01,2013-03-04 00:18:00,
2013-03-03 16:28:00,49.1,29.2,30.19,NNE,31,0.0,0.0,46,0.00,,SKC,0.00,VWS V13.01,2013-03-04 00:28:00,
2013-03-03 16:38:00,48.8,28.4,30.19,NE,49,0.0,0.0,45,0.00,,SKC,0.00,VWS V13.01,2013-03-04 00:38:00,
2013-03-03 16:48:00,48.5,27.0,30.19,NE,50,0.0,0.0,43,0.00,,SKC,0.00,VWS V13.01,2013-03-04 00:48:00,
2013-03-03 16:58:00,48.3,27.4,30.19,NE,49,0.0,0.0,44,0.00,,SKC,0.00,VWS V13.01,2013-03-04 00:58:00,
2013-03-03 17:08:00,48.0,28.8,30.19,North,5,0.0,0.0,47,0.00,,SKC,0.00,VWS V13.01,2013-03-04 01:08:00,
2013-03-03 17:18:00,47.6,28.9,30.18,North,0,0.0,0.0,48,0.00,,SKC,0.00,VWS V13.01,2013-03-04 01:18:00,
2013-03-03 17:28:00,47.3,29.1,30.18,North,8,0.0,0.0,49,0.00,,SKC,0.00,VWS V13.01,2013-03-04 01:28:00,
2013-03-03 17:38:00,47.1,29.4,30.18,NE,46,0.0,0.0,50,0.00,,SKC,0.00,VWS V13.01,2013-03-04 01:38:00,
2013-03-03 17:48:00,46.7,29.5,30.19,NNE,27,0.0,0.0,51,0.00,,SKC,0.00,VWS V13.01,2013-03-04 01:48:00,
2013-03-03 17:58:00,46.2,29.6,30.19,ENE,58,0.0,0.0,52,0.00,,SKC,0.00,VWS V13.01,2013-03-04 01:58:00,
2013-03-03 18:08:00,45.7,30.0,30.19,NNE,33,0.0,0.0,54,0.00,,SKC,0.00,VWS V13.01,2013-03-04 02:08:00,
2013-03-03 18:18:00,45.4,30.2,30.19,NNE,33,0.0,0.0,55,0.00,,SKC,0.00,VWS V13.01,2013-03-04 02:18:00,
2013-03-03 18:28:00,44.9,30.2,30.19,NNE,33,0.0,0.0,56,0.00,,SKC,0.00,VWS V13.01,2013-03-04 02:28:00,
2013-03-03 18:38:00,44.3,30.5,30.19,NNE,33,0.0,0.0,58,0.00,,SKC,0.00,VWS V13.01,2013-03-04 02:38:00,
2013-03-03 18:48:00,43.8,30.4,30.19,NNE,33,0.0,0.0,59,0.00,,SKC,0.00,VWS V13.01,2013-03-04 02:48:00,
2013-03-03 18:58:00,43.3,30.8,30.19,NNE,33,0.0,0.0,61,0.00,,SKC,0.00,VWS V13.01,2013-03-04 02:58:00,
2013-03-03 19:08:00,42.8,31.1,30.19,NNE,33,0.0,0.0,63,0.00,,SKC,0.00,VWS V13.01,2013-03-04 03:08:00,
2013-03-03 19:18:00,42.2,30.9,30.19,NNE,33,0.0,0.0,64,0.00,,SKC,0.00,VWS V13.01,2013-03-04 03:18:00,
2013-03-03 19:28:00,41.8,30.5,30.19,NNE,33,0.0,0.0,64,0.00,,SKC,0.00,VWS V13.01,2013-03-04 03:28:00,
2013-03-03 19:38:00,41.5,30.2,30.19,NNE,33,0.0,0.0,64,0.00,,SKC,0.00,VWS V13.01,2013-03-04 03:38:00,
2013-03-03 19:48:00,41.2,30.3,30.19,NNE,33,0.0,0.0,65,0.00,,SKC,0.00,VWS V13.01,2013-03-04 03:48:00,
2013-03-03 19:58:00,40.9,30.1,30.19,NNE,33,0.0,0.0,65,0.00,,SKC,0.00,VWS V13.01,2013-03-04 03:58:00,
2013-03-03 20:08:00,40.6,30.1,30.19,NNE,33,0.0,0.0,66,0.00,,SKC,0.00,VWS V13.01,2013-03-04 04:08:00,
2013-03-03 20:18:00,40.2,29.8,30.19,NNE,33,0.0,0.0,66,0.00,,SKC,0.00,VWS V13.01,2013-03-04 04:18:00,
2013-03-03 20:28:00,39.8,29.4,30.19,NE,36,0.0,0.0,66,0.00,,SKC,0.00,VWS V13.01,2013-03-04 04:28:00,
2013-03-03 20:38:00,39.5,29.5,30.19,NE,36,0.0,0.0,67,0.00,,SKC,0.00,VWS V13.01,2013-03-04 04:38:00,
2013-03-03 20:48:00,39.2,29.2,30.18,NE,36,0.0,0.0,67,0.00,,SKC,0.00,VWS V13.01,2013-03-04 04:48:00,
2013-03-03 20:58:00,38.6,29.0,30.18,NE,36,0.0,0.0,68,0.00,,SKC,0.00,VWS V13.01,2013-03-04 04:58:00,
2013-03-03 21:08:00,38.3,29.0,30.18,NE,49,0.0,0.0,69,0.00,,SKC,0.00,VWS V13.01,2013-03-04 05:08:00,
2013-03-03 21:18:00,37.9,28.6,30.18,NE,49,0.0,0.0,69,0.00,,SKC,0.00,VWS V13.01,2013-03-04 05:18:00,
2013-03-03 21:28:00,37.3,28.8,30.18,ENE,70,0.0,0.0,71,0.00,,SKC,0.00,VWS V13.01,2013-03-04 05:28:00,
2013-03-03 21:38:00,36.9,28.7,30.18,ENE,70,0.0,0.0,72,0.00,,SKC,0.00,VWS V13.01,2013-03-04 05:38:00,
2013-03-03 21:48:00,36.3,28.8,30.18,East,81,0.0,0.0,74,0.00,,SKC,0.00,VWS V13.01,2013-03-04 05:48:00,
2013-03-03 21:58:00,36.0,28.9,30.17,ESE,106,0.0,0.0,75,0.00,,SKC,0.00,VWS V13.01,2013-03-04 05:58:00,
2013-03-03 22:08:00,35.8,29.3,30.17,ESE,108,0.0,0.0,77,0.00,,SKC,0.00,VWS V13.01,2013-03-04 06:08:00,
2013-03-03 22:18:00,35.6,29.4,30.17,East,84,0.0,0.0,78,0.00,,SKC,0.00,VWS V13.01,2013-03-04 06:18:00,
2013-03-03 22:28:00,35.3,29.5,30.17,ESE,107,0.0,0.0,79,0.00,,SKC,0.00,VWS V13.01,2013-03-04 06:28:00,
2013-03-03 22:38:00,35.2,29.4,30.17,ESE,115,0.0,0.0,79,0.00,,SKC,0.00,VWS V13.01,2013-03-04 06:38:00,
2013-03-03 22:48:00,34.9,29.4,30.17,East,95,0.0,0.0,80,0.00,,SKC,0.00,VWS V13.01,2013-03-04 06:48:00,
2013-03-03 22:58:00,34.7,29.2,30.17,East,85,0.0,0.0,80,0.00,,SKC,0.00,VWS V13.01,2013-03-04 06:58:00,
2013-03-03 23:08:00,34.4,29.2,30.17,ESE,105,0.0,0.0,81,0.00,,SKC,0.00,VWS V13.01,2013-03-04 07:08:00,
2013-03-03 23:18:00,34.1,28.9,30.16,ESE,104,0.0,0.0,81,0.00,,SKC,0.00,VWS V13.01,2013-03-04 07:18:00,
2013-03-03 23:28:00,33.8,28.6,30.16,East,94,0.0,0.0,81,0.00,,SKC,0.00,VWS V13.01,2013-03-04 07:28:00,
2013-03-03 23:38:00,33.7,28.8,30.16,East,98,0.0,0.0,82,0.00,,SKC,0.00,VWS V13.01,2013-03-04 07:38:00,
2013-03-03 23:48:00,33.5,28.6,30.16,East,97,0.0,0.0,82,0.00,,SKC,0.00,VWS V13.01,2013-03-04 07:48:00,
2013-03-03 23:58:00,33.2,28.6,30.16,ESE,103,0.0,0.0,83,0.00,,SKC,0.00,VWS V13.01,2013-03-04 07:58:00,